GFSFLT1_850_temp_093.txt.gz
Temp
21 22 22 22 22 22 21 20 20 20 18 18 17 16 16 16 16 16 15 15 14 13 12 12 12 12 12 12 12 12 12 11
20 21 21 22 22 22 21 20 19 19 17 17 18 17 15 15 16 16 14 15 14 13 12 12 12 11 12 12 12 12 11 11
20 21 21 22 22 22 20 20 19 19 17 17 18 17 15 15 14 15 12 14 13 13 12 12 12 12 11 11 12 12 10 11
20 20 22 22 22 22 20 20 19 19 17 16 15 15 14 13 13 15 13 12 12 13 13 12 12 13 12 12 11 11 12 10
19 21 22 22 22 22 21 20 19 19 16 16 16 16 14 15 15 14 13 12 12 12 12 12 12 13 12 11 11 11 11 10
16 16 17 20 22 21 21 20 19 18 17 17 17 15 14 14 14 13 13 12 11 11 11 11 11 11 11 11 11 10 11 11
16 16 16 18 18 20 20 19 19 19 17 16 17 15 13 13 13 12 12 11 11 11 11 10 11 11 11 10 11 11 10 10
13 15 16 17 17 18 19 19 18 19 17 16 16 14 13 13 13 12 11 11 11 10 11 10 10 10 10 10 10 10 10 10
10 11 13 14 17 19 18 19 19 18 16 16 14 13 13 13 12 12 12 11 10 10 11 11 11 11 10 10 10 10 10 10
8 9 10 12 16 16 17 19 18 18 17 16 14 13 13 13 12 12 12 11 10 11 11 11 11 11 9 9 10 10 9 10
6 7 9 10 12 15 16 17 17 17 16 15 14 13 13 13 12 12 11 10 10 11 11 11 11 11 9 10 10 10 10 10
5 6 7 8 10 12 14 14 14 13 15 14 14 13 12 12 11 11 10 10 11 11 11 10 10 11 10 9 9 9 10 10
3 5 6 7 9 10 11 11 13 14 13 13 12 12 12 11 10 10 11 11 11 10 10 10 10 10 9 9 9 9 9 9
2 4 4 4 6 8 9 10 11 11 12 12 11 11 11 10 10 10 10 10 10 10 10 10 10 10 9 9 9 9 9 9
-1 0 2 3 3 6 8 9 10 11 11 10 10 10 10 10 9 9 9 9 9 10 9 9 9 9 9 9 9 9 9 9
-3 -2 -1 1 2 4 5 7 9 10 10 10 9 9 9 9 9 9 9 9 9 9 9 9 9 9 9 9 8 8 8 8
-4 -3 -2 -1 1 1 3 4 7 9 9 9 9 9 9 9 9 9 9 9 9 9 9 9 9 9 8 8 8 8 8 7
-4 -4 -4 -3 -1 -0 2 2 4 7 7 8 9 9 9 9 9 9 9 8 8 8 8 8 8 8 8 8 8 8 8 8
-4 -4 -4 -3 -2 -1 -0 1 2 4 4 5 5 7 7 8 8 8 8 8 8 8 8 7 8 8 8 8 8 8 8 8

GFSFLT1_850_temp_096.txt.gz
Temp
21 21 20 21 21 22 22 21 21 20 20 19 18 18 18 16 16 16 15 15 14 13 13 13 13 13 13 13 12 11 11 11
20 21 21 21 21 21 22 21 21 20 19 19 18 18 18 16 16 16 15 14 14 13 13 13 13 13 13 12 11 11 11 11
20 21 21 21 21 21 21 21 20 20 20 19 19 17 17 17 17 16 15 14 14 13 14 13 13 12 12 12 12 11 11 11
19 19 20 21 21 21 21 21 21 20 20 19 18 18 18 15 15 15 14 12 13 12 12 13 12 12 12 12 12 12 12 11
16 18 19 19 20 21 20 21 20 20 20 19 19 19 18 18 16 15 14 11 12 11 11 12 12 12 12 12 12 12 12 12
11 14 15 16 18 20 20 20 19 20 19 19 20 17 17 17 15 15 14 12 12 12 11 11 12 12 12 12 12 12 12 12
11 11 13 15 16 17 17 20 19 19 18 19 18 18 17 15 15 14 13 13 12 12 11 11 11 12 11 11 11 12 12 12
10 10 12 14 15 15 15 16 17 18 18 19 18 17 16 15 15 15 14 13 12 11 11 11 11 11 11 11 10 10 10 10
9 7 8 10 12 16 15 16 17 18 18 18 18 16 15 14 14 15 14 14 13 11 11 11 10 10 10 10 10 10 10 10
4 7 8 8 9 11 15 16 17 18 18 18 17 16 14 14 13 13 13 13 11 11 10 10 10 10 10 10 9 10 10 10
4 5 6 8 8 10 13 14 16 16 16 17 17 16 14 13 13 13 12 11 10 11 11 11 10 10 11 10 9 10 10 10
1 3 5 6 8 9 10 13 13 15 14 13 15 15 13 13 13 12 12 11 10 11 11 11 10 10 10 9 9 9 9 10
0 1 3 6 7 9 10 11 12 13 13 11 12 13 13 12 12 11 11 10 10 11 10 10 10 10 10 9 9 9 9 9
-1 1 2 3 4 6 8 10 10 11 11 12 12 12 13 12 11 10 11 11 11 10 10 10 10 9 9 9 9 9 9 9
-2 -1 -1 1 2 3 5 7 9 10 10 12 12 11 11 10 10 10 10 9 9 9 9 9 9 9 9 9 9 9 9 9
-4 -3 -2 -1 1 3 4 5 7 9 10 10 10 10 10 10 10 10 10 9 9 9 9 9 8 9 9 9 9 8 9 8
-4 -4 -2 -2 -1 1 2 3 5 6 9 10 9 9 9 9 10 10 9 9 9 9 9 9 8 9 8 8 8 8 8 8
-4 -4 -4 -3 -2 -1 0 1 2 4 6 7 8 9 9 9 9 9 9 9 8 8 9 9 8 8 8 8 8 8 8 8
-5 -4 -4 -3 -2 -1 -1 -0 1 2 2 3 5 7 8 8 8 8 9 8 8 8 8 8 8 8 8 8 8 8 8 7

GFSFLT1_850_temp_102.txt.gz
Temp
17 17 17 17 18 19 19 19 19 20 20 19 19 19 19 18 18 18 18 17 17 16 15 15 14 13 13 12 12 12 12 11
15 16 16 17 17 18 18 19 19 20 18 17 18 19 19 19 18 18 18 17 17 16 15 15 14 13 13 13 12 12 12 11
13 14 14 14 15 17 18 19 18 19 19 18 19 19 19 19 19 17 18 17 17 16 15 15 14 12 12 12 12 12 11 11
10 11 11 12 13 13 16 17 17 18 19 18 16 17 18 16 18 17 17 17 16 16 15 15 14 13 12 12 12 12 11 11
7 8 9 10 11 13 14 15 16 17 18 17 17 17 19 19 19 19 17 17 17 15 15 14 12 12 12 12 12 12 12 11
7 7 7 8 9 11 14 14 15 16 16 18 19 19 18 19 19 19 18 18 17 15 14 13 12 11 12 11 12 12 11 11
6 6 6 7 8 9 14 13 14 15 12 16 18 20 19 18 17 18 18 18 17 16 14 13 13 11 11 12 12 11 11 11
5 4 4 5 6 8 13 12 14 14 13 14 17 16 17 18 18 19 18 18 17 15 15 13 12 11 11 11 11 11 11 11
3 4 3 3 4 6 10 11 10 12 12 12 13 13 16 16 16 16 17 18 18 17 15 13 11 10 10 10 10 11 11 11
2 3 2 1 3 6 8 8 10 12 13 13 13 13 14 15 16 16 17 16 17 16 14 14 11 10 10 10 11 11 10 10
1 1 1 1 2 5 7 8 10 11 12 13 13 13 13 14 15 15 16 17 16 15 13 13 11 10 10 10 10 10 10 10
-2 0 0 1 1 3 5 6 7 10 12 11 13 12 14 15 14 14 16 15 15 12 12 12 11 10 10 10 10 10 10 9
-3 -2 -1 -0 1 2 3 5 8 9 10 10 12 14 14 14 14 13 14 14 13 11 11 11 10 10 9 10 10 10 10 9
-3 -3 -2 -2 -1 1 2 4 6 8 10 10 10 13 13 12 13 12 12 13 12 10 10 9 9 9 10 10 10 9 9 8
-4 -4 -4 -3 -2 -1 1 2 4 6 8 9 9 10 10 10 11 12 11 10 11 10 9 9 9 10 10 10 8 8 8 8
-5 -5 -5 -4 -3 -1 -0 1 2 4 6 8 10 10 10 10 9 9 10 10 10 9 9 10 10 9 9 9 8 8 8 9
-5 -4 -4 -4 -4 -3 -1 -0 1 2 4 6 6 9 9 9 9 10 9 10 9 9 9 9 10 9 8 8 8 8 8 8
-5 -5 -5 -4 -4 -3 -3 -1 -0 1 2 3 4 4 5 8 9 9 9 9 9 9 9 8 8 9 9 8 8 8 8 8
-5 -5 -4 -4 -3 -3 -2 -2 -2 -0 1 2 3 2 2 2 3 5 8 8 8 8 8 8 8 8 8 8 8 8 8 8

GFSFLT1_850_temp_105.txt.gz
Temp
14 15 15 16 16 17 17 18 18 18 19 19 18 17 18 19 19 19 18 18 18 18 17 17 16 15 14 14 13 13 12 12
12 12 13 13 14 16 16 17 18 18 18 18 18 19 18 18 18 19 18 17 17 17 17 17 16 16 14 14 13 12 12 12
12 11 11 12 12 13 14 15 17 18 18 18 18 18 17 19 18 18 18 17 17 16 17 17 16 15 14 14 13 12 12 12
10 11 11 11 11 12 13 14 14 15 17 15 13 13 12 13 14 18 18 18 17 17 17 17 16 15 14 13 12 12 12 11
8 9 10 11 11 11 11 13 13 14 14 13 12 13 12 13 17 19 19 19 17 17 16 17 16 15 14 12 11 12 12 11
4 5 7 8 9 10 11 11 12 13 13 13 12 12 13 14 14 18 19 19 18 16 16 16 15 15 14 12 11 11 11 11
3 4 5 6 6 7 8 10 12 13 12 13 12 12 12 12 12 15 18 19 18 17 16 16 16 15 14 12 11 11 11 11
1 1 2 2 5 5 6 7 10 11 11 12 12 12 13 12 12 14 18 18 18 17 17 17 17 16 14 12 11 11 11 11
1 -0 -0 -1 3 4 5 6 7 8 9 10 12 12 12 12 12 12 15 17 19 17 17 17 18 16 13 12 11 11 11 11
-1 -1 -2 -1 2 4 3 4 7 8 9 11 11 12 12 12 12 12 12 14 14 14 17 17 16 14 12 11 11 11 11 11
-2 -2 -3 -2 2 2 2 4 4 7 9 12 12 13 12 12 12 12 13 14 14 15 17 16 16 12 11 11 10 10 10 10
-2 -3 -3 -1 1 1 2 4 5 8 10 11 14 12 12 12 12 12 12 15 13 15 16 15 13 10 10 10 10 10 10 10
-3 -4 -2 -0 -0 0 1 2 4 6 8 9 12 11 12 12 12 12 12 12 12 12 14 13 11 11 10 10 10 10 10 10
-4 -4 -3 -3 -2 -2 -0 1 3 6 8 9 10 10 11 12 13 12 11 13 13 12 11 11 11 11 10 10 10 10 9 9
-4 -5 -4 -4 -3 -2 -1 1 2 3 5 8 9 9 10 11 10 12 12 11 11 11 10 10 12 10 10 9 9 9 8 8
-5 -5 -4 -4 -3 -2 -1 -0 1 2 4 6 8 9 9 10 9 9 9 10 10 10 10 10 11 9 9 9 9 8 8 8
-5 -5 -5 -4 -4 -3 -2 -2 -0 1 2 3 4 6 7 9 9 9 9 10 11 9 9 10 9 9 9 8 8 8 8 8
-5 -5 -5 -5 -4 -4 -3 -2 -1 -0 0 2 2 3 4 5 6 6 5 8 9 9 9 9 8 8 8 8 8 8 8 7
-6 -5 -5 -4 -4 -3 -3 -3 -2 -1 -1 0 1 2 2 2 2 3 6 5 6 8 8 8 8 8 8 8 8 8 8 7

GFSFLT1_850_temp_111.txt.gz
Temp
17 15 14 13 13 13 12 12 12 12 14 16 16 17 17 16 16 17 16 16 15 15 15 14 15 17 17 14 14 14 14 14
16 14 13 12 12 12 11 11 11 11 12 14 16 16 17 17 16 16 16 15 15 15 15 15 17 17 18 17 14 14 13 13
15 13 12 11 11 10 10 10 10 10 11 12 13 15 16 17 16 16 16 16 15 15 16 18 17 18 17 17 15 14 13 13
13 12 11 11 10 9 9 9 9 9 9 10 11 12 15 16 16 16 16 15 15 15 16 17 14 17 18 17 16 15 13 13
12 11 11 10 10 8 8 7 7 8 7 8 9 9 12 15 17 17 16 15 14 14 14 16 14 17 17 17 16 14 12 13
11 10 10 9 9 7 6 6 6 6 6 6 6 7 9 11 14 15 16 15 14 13 13 13 13 16 16 17 16 13 14 13
10 9 9 8 7 6 5 4 4 4 5 6 6 7 7 7 11 13 16 16 14 13 13 13 13 13 15 16 16 16 15 13
9 9 8 7 6 5 4 3 4 5 5 6 6 5 6 6 8 12 13 15 14 14 12 12 13 14 14 15 15 12 13 13
9 7 7 6 4 3 2 2 5 5 5 5 6 7 6 6 8 10 12 13 13 13 14 12 13 14 14 13 13 12 14 12
8 7 6 4 3 2 0 -1 1 2 4 4 5 6 6 6 7 8 11 12 13 13 14 13 13 13 13 13 13 13 12 13
7 6 5 3 2 1 -1 -2 -0 1 2 3 4 6 6 7 8 9 11 12 13 13 13 13 12 13 13 12 13 13 13 13
6 5 3 2 0 -1 -2 -0 -0 1 2 3 5 5 6 7 9 11 11 12 13 13 13 13 12 13 13 13 13 13 13 12
4 3 2 0 -1 -3 -4 -3 -2 1 1 2 3 4 6 9 11 12 12 12 12 13 13 13 12 11 12 13 13 13 13 12
3 2 1 -1 -3 -4 -5 -4 -2 0 1 1 1 2 7 10 10 10 11 11 12 12 12 12 12 12 12 13 12 14 14 14
1 0 -1 -2 -3 -5 -5 -3 -2 -2 -1 -1 0 3 5 7 8 9 9 10 11 11 11 11 11 12 12 12 12 12 14 14
-1 -2 -3 -3 -5 -5 -4 -3 -3 -3 -3 -1 0 2 3 5 6 8 9 9 10 10 10 11 11 11 11 11 11 11 13 12
-3 -4 -5 -5 -4 -5 -5 -4 -3 -4 -3 -3 -2 -0 1 2 4 6 8 9 9 9 10 10 11 11 11 10 10 10 10 10
-5 -5 -5 -5 -5 -6 -6 -6 -5 -4 -4 -3 -2 -1 0 0 1 3 2 5 7 8 9 9 10 10 10 10 10 9 9 11
-6 -6 -5 -5 -6 -5 -6 -5 -5 -4 -4 -4 -4 -3 -2 -1 -0 0 0 1 2 2 2 3 5 5 9 9 9 9 9 8

GFSFLT1_850_temp_114.txt.gz
Temp
18 17 15 14 14 13 12 12 12 13 15 16 16 16 16 16 16 17 17 16 16 16 16 17 17 17 16 16 15 16 15 15
16 14 14 13 13 12 11 11 11 11 12 13 14 15 16 16 16 16 16 16 16 16 16 15 16 17 18 16 15 15 15 15
15 14 13 12 11 10 10 10 10 10 10 11 12 14 15 15 16 17 16 16 16 16 16 15 16 16 17 16 15 15 15 14
14 13 12 11 11 9 9 8 9 9 9 10 10 11 12 15 15 16 16 16 16 16 15 16 15 15 16 17 15 15 15 13
13 12 11 10 10 9 8 7 7 7 9 10 9 9 10 12 14 15 15 15 16 16 15 15 15 15 15 15 14 16 14 12
12 11 10 10 9 7 6 6 6 6 7 8 9 9 9 10 12 14 15 16 15 16 16 15 14 14 14 15 14 14 14 14
11 10 9 9 7 6 5 4 4 5 6 7 7 7 8 9 10 11 14 15 15 15 15 15 15 14 13 14 13 13 13 14
10 9 8 7 6 5 4 3 3 3 4 5 6 6 7 8 8 9 10 12 15 14 14 14 15 14 14 13 13 13 13 12
9 8 7 6 5 4 2 2 3 4 4 5 5 5 5 6 7 6 7 10 12 13 12 13 13 13 13 14 13 13 13 12
8 7 6 5 3 2 1 -0 1 2 2 3 4 5 5 5 5 5 6 7 10 12 12 12 14 13 13 13 13 13 13 13
7 6 5 3 2 0 -1 -2 -2 -1 -0 1 2 2 3 3 4 5 7 7 9 12 12 11 13 13 13 13 13 13 13 12
6 5 4 2 0 -1 -3 -2 -1 -1 -1 -1 -0 1 2 3 3 5 7 7 8 11 13 12 12 12 13 13 13 14 13 13
4 3 2 0 -1 -3 -3 -2 -2 -2 -1 -1 -0 0 2 3 4 7 8 9 10 10 12 11 12 13 13 12 13 13 13 13
3 1 0 -1 -3 -4 -3 -4 -3 -2 -2 -2 -1 0 2 3 4 6 8 9 9 10 11 11 12 13 12 12 12 12 13 13
0 -1 -2 -4 -5 -5 -4 -5 -4 -3 -3 -3 -1 -0 -0 1 4 4 6 7 9 11 11 11 12 12 13 11 11 12 12 12
-2 -3 -4 -5 -5 -4 -5 -6 -5 -4 -4 -4 -3 -1 -1 1 2 3 6 6 7 7 10 10 11 11 11 11 11 11 11 11
-4 -5 -5 -5 -5 -5 -6 -6 -6 -6 -5 -5 -4 -2 -1 -0 0 2 3 5 7 8 10 10 10 11 11 11 11 11 11 11
-6 -6 -6 -5 -5 -5 -6 -6 -6 -6 -6 -5 -4 -4 -3 -2 -1 0 1 1 3 3 6 7 8 9 10 11 11 11 11 10
-6 -6 -6 -5 -5 -5 -5 -5 -5 -6 -6 -5 -5 -5 -5 -4 -2 -2 -1 -0 1 0 1 3 5 5 7 10 9 10 10 9

GFSFLT1_850_temp_120.txt.gz
Temp
15 15 14 14 15 16 16 16 16 16 16 16 16 15 14 15 14 14 13 14 13 14 14 15 15 15 15 15 16 16 16 16
13 13 12 13 13 14 14 14 14 14 14 15 15 15 15 15 14 14 14 13 13 14 14 15 14 14 15 16 15 15 15 16
11 11 12 12 11 11 12 12 13 13 14 13 13 14 15 14 14 15 15 14 14 13 13 15 14 15 15 14 15 15 14 15
9 10 9 10 11 11 11 11 12 13 13 12 12 12 12 14 14 14 14 14 14 14 13 13 14 15 13 15 14 14 13 14
8 8 9 9 7 9 10 10 11 11 12 12 12 11 11 12 12 13 14 14 15 15 14 14 13 13 14 14 14 14 13 14
7 6 7 7 7 8 8 8 9 9 10 10 11 11 10 10 11 12 12 13 13 13 14 14 14 13 12 13 14 13 14 14
5 5 6 7 7 7 8 8 8 8 8 9 9 9 9 10 10 10 11 12 13 13 13 13 14 14 13 13 13 14 14 14
4 4 4 4 4 5 6 7 7 7 7 7 7 7 7 7 8 9 9 10 11 11 12 12 12 13 13 14 13 13 14 13
3 3 2 1 1 4 5 5 5 6 6 6 6 5 5 5 5 6 7 8 8 9 10 11 11 11 12 12 12 12 12 13
2 2 2 1 2 3 3 4 5 4 4 4 4 4 4 3 3 3 5 6 7 7 8 9 10 10 10 10 11 11 11 13
1 2 1 -0 -1 -1 0 1 2 1 1 2 2 2 2 2 2 3 3 3 4 4 5 6 7 9 9 8 9 10 10 12
-0 -1 -1 -2 -1 0 1 0 -1 -1 -1 -0 -0 1 1 0 0 1 1 2 3 4 4 6 7 8 8 7 8 9 9 11
-0 -1 -2 -2 -2 -1 -2 -3 -3 -3 -3 -2 -2 -2 -1 -1 -0 0 1 2 3 3 5 5 6 7 8 7 8 8 9 11
-2 -2 -2 -3 -3 -4 -4 -4 -4 -3 -4 -4 -3 -3 -3 -3 -2 -1 -0 0 1 1 2 4 5 6 7 8 8 8 9 10
-5 -5 -6 -5 -4 -4 -4 -4 -4 -4 -4 -4 -5 -5 -5 -5 -4 -3 -2 -2 -1 -1 0 1 3 5 6 7 8 8 7 10
-5 -6 -6 -5 -5 -4 -4 -4 -4 -4 -4 -5 -5 -6 -6 -6 -5 -4 -4 -3 -3 -2 -2 -1 1 3 6 8 8 8 8 10
-6 -7 -5 -5 -5 -4 -3 -3 -3 -4 -5 -5 -5 -5 -6 -5 -5 -5 -5 -4 -3 -3 -3 -3 -1 2 4 6 8 9 9 9
-7 -6 -5 -5 -5 -4 -4 -4 -4 -4 -4 -4 -4 -4 -5 -6 -6 -6 -5 -5 -4 -5 -5 -3 -3 -1 0 3 8 8 8 9
-6 -6 -5 -5 -5 -4 -5 -5 -4 -3 -4 -4 -4 -4 -5 -5 -5 -6 -6 -5 -5 -5 -5 -5 -4 -3 -1 -0 5 6 5 7